EW8485 Weather Reports


Display with metric or nautical units.
time (UTC)temp
F
wind
direction
speed
MPH
gust
MPH
rain 1hr
in
rain 24hr
in
rain mn
in
humidity
%
barometer
mb
20260831050758 80 129 0.0 0.0 0.00 0.00 0.00 90 1011.5
20260831050528 80 129 0.0 0.0 0.00 0.00 0.00 90 1011.4
20260831045758 80 129 0.0 1.0 0.00 0.00 0.00 90 1011.5
20260831045529 80 129 0.0 1.0 0.00 0.00 0.00 90 1011.4
20260831044754 80 129 0.0 0.0 0.00 0.00 0.00 90 1011.3
20260831044252 80 129 0.0 1.0 0.00 0.00 0.00 90 1011.3
20260831043752 80 129 0.0 1.0 0.00 0.00 0.00 90 1011.3
20260831043248 80 127 0.0 1.0 0.00 0.00 0.00 90 1011.4
20260831042748 80 127 0.0 0.0 0.00 0.00 0.00 89 1011.2
20260831042519 80 127 0.0 0.0 0.00 0.00 0.00 89 1011.2
20260831041748 80 127 0.0 0.0 0.00 0.00 0.00 89 1011.3
20260831041246 80 127 0.0 2.0 0.00 0.00 0.00 88 1011.3
20260831040746 80 127 0.0 2.0 0.00 0.00 0.00 88 1011.2
20260831040239 80 161 0.0 1.0 0.00 0.00 0.00 88 1011.2
20260831040010 80 163 0.0 1.0 0.00 0.00 0.00 87 1011.1
20260831035236 80 123 0.0 1.0 0.00 0.00 0.00 87 1011.2
20260831034734 81 123 0.0 1.0 0.00 0.00 0.00 87 1011.2
20260831034234 81 123 0.0 1.0 0.00 0.00 0.00 87 1011.2
20260831033737 81 123 0.0 1.0 0.00 0.00 0.00 86 1011.0
20260831033732 81 123 0.0 1.0 0.00 0.00 0.00 86 1011.1
20260831032728 81 123 0.0 1.0 0.00 0.00 0.00 86 1011.0
20260831032228 81 123 0.0 1.0 0.00 0.00 0.00 85 1011.0
20260831031729 81 145 0.0 1.0 0.00 0.00 0.00 85 1010.8
20260831031228 81 105 0.0 1.0 0.00 0.00 0.00 84 1010.8
20260831030721 82 131 0.0 1.0 0.00 0.00 0.00 84 1010.8
20260831030221 82 131 0.0 1.0 0.00 0.00 0.00 83 1010.7
20260831025722 82 131 0.0 1.0 0.00 0.00 0.00 83 1010.6
20260831025222 82 131 0.0 1.0 0.00 0.00 0.00 82 1010.6
20260831024954 82 131 0.0 1.0 0.00 0.00 0.00 82 1010.5
20260831024452 83 131 0.0 2.0 0.00 0.00 0.00 81 1010.4
20260831023715 83 131 0.0 2.0 0.00 0.00 0.00 81 1010.4
20260831023214 83 111 1.0 2.0 0.00 0.00 0.00 81 1010.3
20260831022712 83 94 1.0 2.0 0.00 0.00 0.00 80 1010.2
20260831022441 83 94 0.0 2.0 0.00 0.00 0.00 80 1010.2
20260831021710 84 98 0.0 2.0 0.00 0.00 0.00 79 1010.0
20260831021204 84 115 0.0 2.0 0.00 0.00 0.00 79 1010.0
20260831020935 84 109 0.0 2.0 0.00 0.00 0.00 78 1009.9
20260831020203 84 105 0.0 3.0 0.00 0.00 0.00 78 1009.8
20260831015704 84 115 1.0 3.0 0.00 0.00 0.00 78 1009.8
20260831015203 84 181 1.0 4.0 0.00 0.00 0.00 77 1009.8
20260831014702 84 94 0.0 4.0 0.00 0.00 0.00 77 1009.8
20260831014156 85 136 1.0 3.0 0.00 0.00 0.00 77 1009.8
20260831013702 85 124 1.0 7.0 0.00 0.00 0.00 75 1009.9
20260831013655 85 124 1.0 2.0 0.00 0.00 0.00 76 1009.9
20260831012656 85 121 2.0 7.0 0.00 0.00 0.00 75 1009.9
20260831012156 85 129 2.0 4.0 0.00 0.00 0.00 74 1009.8
20260831011655 86 124 1.0 3.0 0.00 0.00 0.00 73 1009.8
20260831011150 86 123 2.0 4.0 0.00 0.00 0.00 73 1009.8
20260831010649 86 96 2.0 4.0 0.00 0.00 0.00 72 1009.7
20260831010150 87 84 2.0 4.0 0.00 0.00 0.00 71 1009.7
20260831005921 87 83 1.0 4.0 0.00 0.00 0.00 70 1009.7
20260831005150 87 91 1.0 3.0 0.00 0.00 0.00 70 1009.7
20260831004650 88 103 1.0 4.0 0.00 0.00 0.00 69 1009.7
20260831004146 88 92 1.0 4.0 0.00 0.00 0.00 68 1009.6
20260831003646 89 82 1.0 4.0 0.00 0.00 0.00 67 1009.6
20260831003414 89 117 1.0 4.0 0.00 0.00 0.00 66 1009.5
20260831002916 90 70 2.0 5.0 0.00 0.00 0.00 65 1009.5
20260831002144 90 145 1.0 5.0 0.00 0.00 0.00 64 1009.4
20260831001644 91 72 1.0 5.0 0.00 0.00 0.00 63 1009.4
20260831001142 91 116 2.0 7.0 0.00 0.00 0.00 62 1009.4
20260831000641 92 84 2.0 7.0 0.00 0.00 0.00 61 1009.4
20260831000419 93 98 2.0 6.0 0.00 0.00 0.00 60 1009.4
20260831000141 92 115 2.0 6.0 0.00 0.00 0.00 61 1009.4
20260830235138 93 101 2.0 5.0 0.00 0.00 0.00 60 1009.4
20260830234637 93 90 2.0 7.0 0.00 0.00 0.00 59 1009.4
20260830234132 93 119 2.0 7.0 0.00 0.00 0.00 59 1009.5
20260830233903 94 103 2.0 6.0 0.00 0.00 0.00 58 1009.5
20260830233404 94 131 1.0 6.0 0.00 0.00 0.00 58 1009.4
20260830232633 94 113 2.0 7.0 0.00 0.00 0.00 59 1009.3
20260830232132 94 80 3.0 9.0 0.00 0.00 0.00 58 1009.3
20260830231902 94 82 3.0 9.0 0.00 0.00 0.00 57 1009.2
20260830231126 94 108 2.0 9.0 0.00 0.00 0.00 57 1009.2
20260830230625 95 132 2.0 7.0 0.00 0.00 0.00 57 1009.3
20260830230126 94 121 3.0 10.0 0.00 0.00 0.00 58 1009.3
20260830225858 94 120 3.0 10.0 0.00 0.00 0.00 58 1009.3
20260830225125 94 74 2.0 8.0 0.00 0.00 0.00 59 1009.1
20260830224626 94 137 2.0 5.0 0.00 0.00 0.00 60 1009.3
20260830224349 93 98 2.0 4.0 0.00 0.00 0.00 60 1009.3
20260830223620 94 84 2.0 4.0 0.00 0.00 0.00 59 1009.3
20260830223119 94 105 2.0 7.0 0.00 0.00 0.00 59 1009.3
20260830222620 94 80 2.0 7.0 0.00 0.00 0.00 58 1009.1
20260830222350 95 97 3.0 9.0 0.00 0.00 0.00 58 1009.3
20260830221619 95 103 3.0 9.0 0.00 0.00 0.00 58 1009.2
20260830221118 96 79 3.0 8.0 0.00 0.00 0.00 55 1009.1
20260830220846 97 81 2.0 5.0 0.00 0.00 0.00 53 1009.1
20260830220115 97 152 2.0 5.0 0.00 0.00 0.00 53 1009.1
20260830215615 98 66 2.0 5.0 0.00 0.00 0.00 52 1009.2
20260830215115 98 147 2.0 6.0 0.00 0.00 0.00 50 1009.1
20260830214615 98 115 2.0 6.0 0.00 0.00 0.00 52 1009.2
20260830214116 98 203 3.0 7.0 0.00 0.00 0.00 51 1009.2
20260830213611 97 176 3.0 8.0 0.00 0.00 0.00 51 1009.3
20260830213344 98 89 2.0 8.0 0.00 0.00 0.00 51 1009.3
20260830212612 98 74 2.0 7.0 0.00 0.00 0.00 51 1009.5
20260830212341 98 151 2.0 5.0 0.00 0.00 0.00 50 1009.6
20260830211607 97 231 2.0 6.0 0.00 0.00 0.00 51 1009.8
20260830211108 97 106 3.0 8.0 0.00 0.00 0.00 51 1009.9
20260830210601 97 103 2.0 8.0 0.00 0.00 0.00 50 1009.8
20260830210059 97 93 3.0 8.0 0.00 0.00 0.00 50 1009.8
20260830205558 97 224 3.0 8.0 0.00 0.00 0.00 50 1010.0
20260830205056 97 90 2.0 4.0 0.00 0.00 0.00 51 1010.0
20260830204556 97 137 2.0 6.0 0.00 0.00 0.00 51 1010.1
20260830204058 97 132 3.0 8.0 0.00 0.00 0.00 50 1010.1
20260830203830 96 125 3.0 8.0 0.00 0.00 0.00 50 1010.2
20260830203053 97 64 2.0 7.0 0.00 0.00 0.00 50 1010.2
20260830202553 97 126 2.0 4.0 0.00 0.00 0.00 50 1010.3
20260830202054 96 224 2.0 5.0 0.00 0.00 0.00 52 1010.5
20260830201552 96 56 3.0 7.0 0.00 0.00 0.00 50 1010.6
20260830201323 96 101 2.0 7.0 0.00 0.00 0.00 50 1010.6
20260830200554 96 119 3.0 6.0 0.00 0.00 0.00 53 1010.6
20260830200052 96 105 2.0 6.0 0.00 0.00 0.00 51 1010.6
20260830195553 97 89 2.0 5.0 0.00 0.00 0.00 51 1010.7
20260830195322 97 101 1.0 5.0 0.00 0.00 0.00 53 1010.8
20260830194552 96 212 2.0 4.0 0.00 0.00 0.00 55 1010.8
20260830194050 96 356 3.0 8.0 0.00 0.00 0.00 55 1010.9
20260830193553 96 110 2.0 8.0 0.00 0.00 0.00 51 1011.0
20260830193047 97 76 1.0 4.0 0.00 0.00 0.00 54 1011.1
20260830192819 97 264 1.0 4.0 0.00 0.00 0.00 55 1011.3
20260830192048 97 207 2.0 5.0 0.00 0.00 0.00 53 1011.4
20260830191818 96 145 2.0 5.0 0.00 0.00 0.00 56 1011.5
20260830191046 96 85 1.0 4.0 0.00 0.00 0.00 53 1011.6
20260830190548 97 256 1.0 5.0 0.00 0.00 0.00 54 1011.6
20260830190046 96 228 2.0 5.0 0.00 0.00 0.00 57 1011.7
20260830185546 96 77 2.0 5.0 0.00 0.00 0.00 57 1011.8
20260830185048 96 249 1.0 4.0 0.00 0.00 0.00 56 1011.7
20260830184548 95 94 1.0 4.0 0.00 0.00 0.00 54 1011.8
20260830184320 95 43 2.0 4.0 0.00 0.00 0.00 55 1011.8
20260830183542 94 264 2.0 4.0 0.00 0.00 0.00 55 1012.0
20260830183043 94 88 1.0 5.0 0.00 0.00 0.00 55 1012.0
20260830182816 95 90 2.0 5.0 0.00 0.00 0.00 54 1012.2
20260830182702 94 79 2.0 5.0 0.00 0.00 0.00 54 1012.2
20260830181543 94 87 2.0 5.0 0.00 0.00 0.00 57 1012.3
20260830181044 94 124 1.0 5.0 0.00 0.00 0.00 59 1012.3
20260830180538 94 69 2.0 6.0 0.00 0.00 0.00 57 1012.4
20260830180039 93 163 3.0 6.0 0.00 0.00 0.00 61 1012.5
20260830175539 94 96 2.0 7.0 0.00 0.00 0.00 58 1012.6
20260830175039 94 105 2.0 7.0 0.00 0.00 0.00 58 1012.7
20260830174538 93 50 1.0 4.0 0.00 0.00 0.00 63 1012.7
20260830174312 93 18 1.0 4.0 0.00 0.00 0.00 62 1012.8
20260830173806 93 347 1.0 4.0 0.00 0.00 0.00 64 1012.9
20260830173035 93 240 1.0 4.0 0.00 0.00 0.00 62 1012.9
20260830172532 92 45 2.0 5.0 0.00 0.00 0.00 65 1013.0
20260830172034 92 69 2.0 5.0 0.00 0.00 0.00 65 1013.1
20260830171532 92 340 1.0 3.0 0.00 0.00 0.00 66 1013.1
20260830171030 92 63 1.0 4.0 0.00 0.00 0.00 69 1013.0
20260830170803 91 49 1.0 4.0 0.00 0.00 0.00 69 1013.0
20260830170031 90 241 1.0 3.0 0.00 0.00 0.00 69 1013.1
20260830165529 90 323 1.0 2.0 0.00 0.00 0.00 71 1013.1
20260830165028 89 270 1.0 2.0 0.00 0.00 0.00 70 1013.2
20260830164526 90 266 1.0 2.0 0.00 0.00 0.00 70 1013.1
20260830164020 90 101 1.0 4.0 0.00 0.00 0.00 69 1013.2
20260830163518 90 316 1.0 4.0 0.00 0.00 0.00 71 1013.4
20260830163019 90 297 1.0 3.0 0.00 0.00 0.00 71 1013.3
20260830162520 89 294 1.0 3.0 0.00 0.00 0.00 72 1013.3
20260830162028 89 267 1.0 3.0 0.00 0.00 0.00 72 1013.3
20260830161520 89 296 1.0 3.0 0.00 0.00 0.00 73 1013.4
20260830161012 89 276 1.0 3.0 0.00 0.00 0.00 74 1013.4
20260830160741 89 258 1.0 3.0 0.00 0.00 0.00 75 1013.4
20260830160011 88 290 0.0 2.0 0.00 0.00 0.00 76 1013.4
20260830155508 87 257 1.0 2.0 0.00 0.00 0.00 76 1013.4
20260830155240 87 258 1.0 2.0 0.00 0.00 0.00 76 1013.3
20260830154504 88 262 1.0 2.0 0.00 0.00 0.00 75 1013.3
20260830154234 88 250 1.0 2.0 0.00 0.00 0.00 74 1013.2
20260830153504 88 272 1.0 3.0 0.00 0.00 0.00 74 1013.3
20260830153005 89 257 1.0 3.0 0.00 0.00 0.00 74 1013.4
20260830152502 88 263 1.0 4.0 0.00 0.00 0.00 75 1013.3
20260830152002 88 235 1.0 4.0 0.00 0.00 0.00 77 1013.3
20260830151727 88 247 0.0 3.0 0.00 0.00 0.00 76 1013.2
20260830150958 88 246 0.0 3.0 0.00 0.00 0.00 76 1013.2
20260830150454 88 93 0.0 1.0 0.00 0.00 0.00 77 1013.2
20260830145957 88 89 0.0 2.0 0.00 0.00 0.00 78 1013.2
20260830145456 88 89 0.0 2.0 0.00 0.00 0.00 78 1013.3
20260830145239 88 261 0.0 2.0 0.00 0.00 0.00 76 1013.4
20260830144453 89 90 0.0 1.0 0.00 0.00 0.00 77 1013.3
20260830143952 89 91 0.0 1.0 0.00 0.00 0.00 76 1013.3
20260830143449 88 118 0.0 1.0 0.00 0.00 0.00 79 1013.2
20260830142950 87 228 0.0 2.0 0.00 0.00 0.00 80 1013.2
20260830142446 87 101 1.0 2.0 0.00 0.00 0.00 81 1013.3
20260830141948 87 96 0.0 2.0 0.00 0.00 0.00 80 1013.3
20260830141447 86 108 0.0 2.0 0.00 0.00 0.00 82 1013.2
20260830141440 87 110 0.0 1.0 0.00 0.00 0.00 81 1013.3
20260830140438 86 108 0.0 2.0 0.00 0.00 0.00 82 1013.3
20260830135934 86 131 0.0 1.0 0.00 0.00 0.00 83 1013.3
20260830135705 85 117 0.0 1.0 0.00 0.00 0.00 84 1013.2
20260830134931 84 117 0.0 0.0 0.00 0.00 0.00 85 1013.2
20260830134707 84 117 0.0 1.0 0.00 0.00 0.00 85 1013.1
20260830133932 84 117 0.0 1.0 0.00 0.00 0.00 86 1013.0
20260830133431 83 117 0.0 1.0 0.00 0.00 0.00 86 1013.0
20260830132929 83 117 0.0 1.0 0.00 0.00 0.00 87 1012.9
20260830132428 82 117 0.0 1.0 0.00 0.00 0.00 89 1012.9
20260830131928 82 117 0.0 1.0 0.00 0.00 0.00 90 1012.8
20260830131656 81 117 0.0 1.0 0.00 0.00 0.00 93 1012.9
20260830130926 80 117 0.0 1.0 0.00 0.00 0.00 94 1012.8
20260830130425 79 117 0.0 2.0 0.00 0.00 0.00 94 1012.7
20260830130155 79 117 0.0 2.0 0.00 0.00 0.00 95 1012.7
20260830125423 78 229 0.0 0.0 0.00 0.00 0.00 97 1012.6
20260830124918 78 229 0.0 0.0 0.00 0.00 0.00 97 1012.5
20260830124420 77 230 0.0 1.0 0.00 0.00 0.00 97 1012.5
20260830123919 76 229 0.0 1.0 0.00 0.00 0.00 98 1012.6
20260830123420 76 230 0.0 0.0 0.00 0.00 0.00 98 1012.5
20260830122917 76 230 0.0 0.0 0.00 0.00 0.00 98 1012.4
20260830122417 75 230 0.0 0.0 0.00 0.00 0.00 98 1012.4
20260830121914 75 230 0.0 0.0 0.00 0.00 0.00 98 1012.4
20260830121414 75 229 0.0 0.0 0.00 0.00 0.00 98 1012.5
20260830120910 75 230 0.0 0.0 0.00 0.00 0.00 98 1012.4
20260830120411 75 230 0.0 0.0 0.00 0.00 0.00 97 1012.3
20260830120143 75 229 0.0 0.0 0.00 0.00 0.00 97 1012.3
20260830115411 75 229 0.0 0.0 0.00 0.00 0.00 97 1012.3
20260830114904 75 230 0.0 0.0 0.00 0.00 0.00 97 1012.3
20260830114402 75 230 0.0 0.0 0.00 0.00 0.00 97 1012.3
20260830113902 75 230 0.0 0.0 0.00 0.00 0.00 97 1012.3
20260830113400 75 230 0.0 0.0 0.00 0.00 0.00 97 1012.2
20260830112859 75 230 0.0 0.0 0.00 0.00 0.00 97 1012.1
20260830112357 75 230 0.0 0.0 0.00 0.00 0.00 97 1012.1
20260830111854 75 229 0.0 0.0 0.00 0.00 0.00 97 1012.1
20260830111354 75 229 0.0 0.0 0.00 0.00 0.00 97 1012.0
20260830111125 75 230 0.0 0.0 0.00 0.00 0.00 97 1012.0
20260830110353 75 230 0.0 0.0 0.00 0.00 0.00 97 1011.9
20260830105853 75 230 0.0 0.0 0.00 0.00 0.00 97 1011.9
20260830105622 75 229 0.0 0.0 0.00 0.00 0.00 97 1011.9
20260830104855 75 230 0.0 0.0 0.00 0.00 0.00 97 1011.9
20260830104849 75 229 0.0 0.0 0.00 0.00 0.00 97 1011.9
20260830103848 75 230 0.0 0.0 0.00 0.00 0.00 97 1011.9
20260830103348 75 230 0.0 0.0 0.00 0.00 0.00 97 1012.0
20260830102847 75 229 0.0 0.0 0.00 0.00 0.00 97 1011.9
20260830102341 75 230 0.0 0.0 0.00 0.00 0.00 97 1011.9
20260830101840 75 230 0.0 0.0 0.00 0.00 0.00 97 1011.8
20260830101340 75 230 0.0 0.0 0.00 0.00 0.00 97 1011.8
20260830100841 75 230 0.0 0.0 0.00 0.00 0.00 96 1011.8
20260830100341 75 229 0.0 0.0 0.00 0.00 0.00 97 1011.8
20260830095841 75 230 0.0 0.0 0.00 0.00 0.00 97 1011.8
20260830095338 75 229 0.0 0.0 0.00 0.00 0.00 97 1011.7
20260830094837 75 230 0.0 0.0 0.00 0.00 0.00 96 1011.7
20260830094334 75 230 0.0 0.0 0.00 0.00 0.00 96 1011.7
20260830093836 75 229 0.0 0.0 0.00 0.00 0.00 96 1011.7
20260830093335 75 229 0.0 0.0 0.00 0.00 0.00 96 1011.7
20260830092835 76 229 0.0 0.0 0.00 0.00 0.00 96 1011.7
20260830092603 76 230 0.0 0.0 0.00 0.00 0.00 96 1011.7
20260830091831 76 230 0.0 0.0 0.00 0.00 0.00 96 1011.7
20260830091329 76 229 0.0 0.0 0.00 0.00 0.00 96 1011.7
20260830090829 76 230 0.0 0.0 0.00 0.00 0.00 96 1011.7
20260830090329 76 230 0.0 0.0 0.00 0.00 0.00 96 1011.7
20260830090059 76 229 0.0 0.0 0.00 0.00 0.00 96 1011.7
20260830085323 76 230 0.0 0.0 0.00 0.00 0.00 96 1011.7
20260830084821 76 230 0.0 0.0 0.00 0.00 0.00 96 1011.7
20260830084555 76 229 0.0 0.0 0.00 0.00 0.00 96 1011.7
20260830083823 76 229 0.0 0.0 0.00 0.00 0.00 96 1011.7
20260830083324 76 230 0.0 0.0 0.00 0.00 0.00 96 1011.8
20260830083055 76 230 0.0 0.0 0.00 0.00 0.00 95 1011.8
20260830082316 76 229 0.0 0.0 0.00 0.00 0.00 96 1011.8
20260830081816 76 229 0.0 0.0 0.00 0.00 0.00 96 1011.8
20260830081316 76 230 0.0 0.0 0.00 0.00 0.00 96 1011.8
20260830080817 76 229 0.0 0.0 0.00 0.00 0.00 95 1011.9
20260830080317 76 230 0.0 0.0 0.00 0.00 0.00 95 1011.9
20260830075817 76 230 0.0 0.0 0.00 0.00 0.00 95 1012.0
20260830075315 76 229 0.0 0.0 0.00 0.00 0.00 95 1011.9
20260830074813 76 230 0.0 0.0 0.00 0.00 0.00 95 1011.9
20260830074541 76 230 0.0 0.0 0.00 0.00 0.00 95 1011.9
20260830073812 76 230 0.0 0.0 0.00 0.00 0.00 95 1012.0
20260830073311 76 230 0.0 0.0 0.00 0.00 0.00 95 1011.9
20260830072811 76 229 0.0 0.0 0.00 0.00 0.00 95 1012.0
20260830072306 77 229 0.0 0.0 0.00 0.00 0.00 95 1012.1
20260830071805 77 229 0.0 0.0 0.00 0.00 0.00 94 1012.0
20260830071305 77 230 0.0 0.0 0.00 0.00 0.00 95 1012.2
20260830070805 77 230 0.0 0.0 0.00 0.00 0.00 94 1012.1
20260830070305 77 229 0.0 0.0 0.00 0.00 0.00 94 1012.0
20260830065805 77 230 0.0 0.0 0.00 0.00 0.00 94 1012.0
20260830065306 77 229 0.0 0.0 0.00 0.00 0.00 94 1012.0
20260830064808 77 230 0.0 0.0 0.00 0.00 0.00 94 1011.9
20260830064801 77 229 0.0 0.0 0.00 0.00 0.00 94 1011.9
20260830063801 78 229 0.0 2.0 0.00 0.00 0.00 94 1012.0
20260830063258 78 230 0.0 2.0 0.00 0.00 0.00 94 1012.0
20260830062758 78 208 0.0 0.0 0.00 0.00 0.00 94 1012.0
20260830062257 78 208 0.0 0.0 0.00 0.00 0.00 93 1012.0
20260830061757 78 208 0.0 0.0 0.00 0.00 0.00 93 1011.9
20260830061257 78 208 0.0 1.0 0.00 0.00 0.00 93 1012.0
20260830060754 78 208 0.0 1.0 0.00 0.00 0.00 93 1011.9
20260830060253 78 209 0.0 1.0 0.00 0.00 0.00 93 1011.9
20260830055752 78 208 0.0 0.0 0.00 0.00 0.00 92 1011.9
20260830055251 78 208 0.0 0.0 0.00 0.00 0.00 92 1011.9
20260830054748 78 208 0.0 0.0 0.00 0.00 0.00 92 1012.0
20260830054516 79 208 0.0 0.0 0.00 0.00 0.00 92 1012.0
20260830054018 79 208 0.0 1.0 0.00 0.00 0.00 92 1011.9
20260830053519 79 209 0.0 1.0 0.00 0.00 0.00 92 1011.9
20260830052747 79 208 0.0 1.0 0.00 0.00 0.00 91 1012.0
20260830052510 79 199 0.0 0.0 0.00 0.00 0.00 91 1012.0
20260830052010 79 198 0.0 0.0 0.00 0.00 0.00 91 1012.0
20260830051237 79 198 0.0 0.0 0.00 0.00 0.00 91 1012.0